Dewpoint
58 55 51 51 53 54 43 39 23 32 31 26 25 23 14 21 25 23 24 24 22 25 26 27 27 27 22 23 20 21 26 24 24 22 26 39 52 57 59 61 65 67 66 67 69 70 70 70 71 72 72 72 72 72 72 72 72 72 71 71 70 70 70 70 70 70 70 70 70 70 70 70 69 69 69 70 70 70 70 70 70 70 70 70 70 70 71 70 70 69 68 68 67 67 66 66 65
55 54 52 54 49 42 37 35 30 31 25 18 17 21 17 22 23 23 22 25 24 25 26 26 27 27 28 27 24 27 26 25 26 27 35 52 56 54 58 62 67 66 66 67 69 70 70 70 70 71 72 72 73 72 72 72 72 71 71 71 70 70 70 70 70 70 70 70 70 70 70 70 70 70 70 70 70 70 70 70 70 70 70 70 70 70 70 70 69 68 68 67 66 66 65 65 64
57 54 53 48 45 43 41 38 28 28 21 13 16 17 18 19 20 21 24 23 24 26 27 26 28 28 26 26 25 24 24 28 39 50 50 54 46 48 57 61 67 67 67 68 69 69 70 69 70 71 72 72 72 72 72 72 71 71 71 70 70 70 70 70 70 70 70 70 70 70 70 70 70 70 69 70 70 70 70 70 70 70 70 70 70 70 70 69 68 68 67 67 66 65 64 63 63
56 56 52 46 38 43 37 34 33 27 21 18 17 18 18 20 20 23 24 24 26 25 28 26 26 28 24 23 25 25 23 27 41 49 45 51 47 47 59 63 65 67 67 68 69 69 69 69 69 71 72 72 72 72 72 72 71 71 71 70 70 70 70 70 70 70 70 70 70 70 70 70 70 69 70 70 69 70 70 69 69 70 69 70 69 70 69 68 68 67 67 66 65 64 63 62 61
51 56 53 46 40 34 35 32 27 23 18 20 13 16 26 22 20 22 23 24 27 25 26 28 25 26 26 27 27 21 21 30 31 46 47 52 55 53 61 64 66 66 67 68 68 69 69 69 69 70 72 72 72 72 72 72 71 71 71 70 70 70 70 70 70 70 70 70 70 70 70 70 70 70 70 69 69 69 69 69 70 69 69 70 69 69 68 67 67 66 66 65 64 63 62 61 60
52 51 50 43 32 38 33 20 23 24 24 23 15 15 17 17 20 21 23 26 27 26 26 26 24 25 24 27 28 21 28 27 32 49 51 46 58 59 60 64 66 66 67 67 68 68 69 68 69 70 72 72 72 72 72 72 71 71 71 70 70 70 70 70 70 70 70 70 70 70 70 70 70 70 70 69 69 69 69 70 70 70 69 69 68 68 67 66 66 65 65 65 63 62 60 60 59
46 45 45 39 37 36 26 23 23 25 22 21 18 15 17 18 19 22 21 25 26 26 31 25 26 23 22 25 28 27 39 40 42 45 51 52 59 60 59 64 66 66 66 67 68 68 68 68 69 71 71 72 72 72 72 72 71 71 71 70 70 70 70 70 70 69 70 70 70 70 70 70 70 70 69 69 69 69 69 69 69 69 68 68 67 67 67 66 65 64 63 64 63 61 59 58 57
51 37 39 31 31 32 26 22 24 27 23 20 19 18 16 19 22 23 22 21 22 24 25 28 27 22 20 25 24 27 39 54 53 56 56 60 60 59 58 64 66 66 66 67 68 68 67 68 69 70 71 72 72 72 72 72 71 71 71 70 70 70 70 70 70 69 70 70 70 70 70 70 71 70 69 69 69 69 69 69 69 68 67 67 66 66 65 64 64 64 63 62 61 60 59 58 57
46 38 42 35 29 33 30 26 28 29 26 23 15 22 30 21 23 22 23 25 24 27 26 26 26 22 21 24 25 28 37 49 55 57 58 59 60 59 57 61 65 65 66 66 67 67 67 67 68 70 70 71 72 72 72 72 71 71 71 70 70 70 70 70 70 70 70 70 70 70 70 70 70 70 69 69 68 69 69 68 67 67 67 66 65 64 64 63 62 61 62 62 60 59 58 58 57
42 34 28 31 33 25 28 27 21 20 20 22 20 18 22 23 21 23 23 22 25 26 25 27 26 23 24 23 24 29 34 49 54 56 57 58 59 58 57 57 64 65 65 66 66 67 68 66 67 68 70 71 71 72 72 72 72 71 71 71 70 71 70 70 70 70 70 70 70 70 70 70 70 70 69 69 69 68 68 67 67 67 66 65 65 64 63 62 62 62 62 61 59 58 57 56 57
38 42 39 30 27 24 23 22 25 27 24 24 23 22 23 23 22 22 23 22 24 23 25 26 25 24 24 24 26 35 46 50 53 53 56 58 58 58 57 55 61 65 65 65 66 67 67 67 66 67 69 69 70 71 71 72 72 72 71 71 71 71 71 71 71 70 71 71 71 71 70 70 70 70 69 69 69 68 67 67 67 66 66 65 64 63 63 62 62 60 62 61 59 58 57 55 55
32 35 35 28 25 24 27 23 25 25 27 25 20 22 21 24 25 21 21 18 20 18 24 26 26 25 23 24 28 35 42 46 52 52 55 56 58 58 57 56 58 62 64 65 65 66 67 67 67 67 67 67 69 70 70 71 71 72 71 71 71 71 71 71 71 71 71 71 71 71 70 70 70 70 69 68 68 68 67 67 67 66 65 65 64 63 62 62 59 60 62 61 58 56 56 55 55
35 37 33 26 25 25 27 24 26 34 28 19 22 21 23 21 20 21 21 20 20 15 20 25 25 24 23 26 29 37 39 43 45 47 51 57 58 57 56 57 57 61 63 64 65 65 66 67 68 67 67 66 66 67 68 69 70 71 71 71 71 71 71 71 71 71 71 71 71 71 71 70 70 70 69 68 68 68 67 66 67 66 65 64 64 61 60 60 59 62 62 60 58 57 56 56 53
36 36 29 23 29 26 24 23 27 21 19 19 21 24 19 21 21 22 19 16 17 15 19 25 22 23 21 21 21 31 36 39 47 50 55 57 56 57 57 57 57 59 61 64 65 65 65 66 67 68 68 67 68 66 66 68 69 70 70 70 70 70 70 71 71 70 70 70 70 70 69 69 69 69 69 68 68 68 67 66 66 64 64 64 61 60 59 59 59 62 61 59 58 57 56 55 52
31 39 34 29 26 23 27 20 23 21 20 21 21 19 17 20 24 23 18 17 18 20 26 25 26 18 13 17 17 27 34 41 50 52 52 55 56 57 57 57 58 58 60 63 64 65 65 66 67 67 67 68 68 68 68 68 66 68 69 69 69 69 69 69 70 69 69 69 69 68 67 67 66 66 67 67 67 66 65 64 65 65 63 62 60 60 60 59 63 61 60 59 58 57 55 53 52
38 38 32 26 23 21 24 24 29 22 19 24 23 20 18 18 22 20 20 19 22 28 22 18 23 18 18 17 17 21 29 48 50 54 54 55 55 56 56 57 58 58 59 61 63 64 65 65 66 66 67 67 68 68 68 69 66 65 67 67 68 68 68 68 68 67 66 66 66 66 65 65 64 65 63 65 64 66 64 61 63 64 63 61 60 60 59 60 62 61 60 59 58 56 54 52 49
42 34 20 27 17 24 27 22 24 20 21 23 21 20 18 17 19 23 25 23 21 21 22 21 21 25 21 19 29 35 46 52 54 54 54 54 54 55 56 56 56 57 59 59 61 63 64 65 65 66 66 67 67 67 68 69 68 64 65 65 65 66 67 67 67 65 63 63 63 62 62 66 65 66 64 66 61 62 59 59 62 63 64 64 63 63 60 60 62 60 60 59 57 56 53 51 49
36 27 26 22 27 25 30 22 23 23 20 19 20 20 18 17 18 19 21 21 22 21 19 21 22 22 22 24 45 46 50 52 53 54 52 52 53 53 54 55 55 58 58 59 59 61 64 64 65 66 66 66 67 68 68 69 69 66 68 68 66 66 64 64 65 66 63 65 62 64 65 64 64 65 64 62 63 60 58 58 60 63 64 64 63 63 60 60 60 60 59 58 57 55 52 41 42
31 31 24 20 28 27 31 24 23 19 21 20 21 21 20 21 20 21 19 18 18 18 18 19 19 20 21 21 40 48 50 51 52 52 52 53 54 54 56 56 56 56 58 58 59 60 63 64 64 65 65 66 67 68 68 69 69 68 68 68 67 64 65 65 66 65 65 65 65 65 64 63 64 64 63 61 60 57 57 57 60 61 62 62 62 62 62 60 59 60 59 58 57 53 43 39 37
35 29 26 29 32 28 29 27 26 21 21 22 23 24 24 23 22 22 20 18 19 18 18 18 17 17 21 21 40 47 49 50 50 50 51 52 53 54 54 55 56 57 58 59 60 60 61 63 64 65 65 66 67 67 68 68 68 68 68 68 68 67 66 65 65 65 65 65 65 64 63 63 63 62 60 58 58 57 57 57 59 60 60 60 60 60 61 61 61 60 59 58 54 46 39 38 36
33 29 28 29 31 28 25 26 25 24 24 24 23 24 21 21 22 22 21 20 19 19 20 19 18 18 19 21 25 46 47 48 49 49 49 49 50 52 53 54 56 58 58 57 57 60 60 61 63 64 64 65 66 67 67 68 68 68 68 68 68 67 66 66 66 66 65 64 63 63 62 62 62 61 60 58 57 57 57 57 57 57 57 56 57 55 56 57 57 55 54 51 43 41 38 36 34
33 29 31 31 30 26 26 27 27 23 23 21 21 21 20 23 24 23 21 20 18 17 18 21 21 20 20 20 20 42 45 45 48 49 48 47 46 47 49 50 51 52 53 56 58 59 60 61 62 63 64 64 65 67 67 67 67 68 68 68 67 67 67 66 66 66 65 65 64 62 61 61 60 60 59 58 57 57 56 55 55 55 54 55 54 54 53 54 53 52 51 47 43 42 41 40 37
28 29 29 30 29 26 27 24 24 22 21 22 22 23 24 24 23 24 22 21 20 21 21 21 21 21 21 22 25 28 34 41 43 46 47 47 46 46 46 47 47 49 52 55 56 58 60 61 61 61 63 64 64 65 66 66 67 67 67 67 67 67 67 66 65 66 65 64 63 62 61 60 60 59 58 57 57 56 56 55 55 54 55 54 53 54 53 53 52 51 50 48 43 41 40 39 39
30 26 28 27 29 28 27 26 25 21 22 20 22 23 20 21 19 23 21 20 21 22 22 21 21 22 22 22 22 23 24 26 32 38 42 43 43 43 44 45 46 47 50 52 54 56 58 60 61 60 62 63 64 65 65 66 66 66 67 66 66 66 66 66 66 65 64 64 62 62 60 60 59 58 57 56 55 55 55 55 54 54 53 53 52 54 53 51 51 50 49 46 44 40 37 38 38
29 28 23 26 23 26 26 22 20 20 20 20 22 19 18 20 19 22 19 20 20 21 24 23 22 22 22 21 20 21 23 24 26 29 33 33 37 40 42 43 43 46 48 50 52 55 57 58 60 61 61 61 63 64 64 65 65 65 65 65 66 64 66 66 66 65 64 63 62 61 60 59 59 58 57 56 55 55 54 54 54 54 54 53 52 51 53 51 50 49 49 48 45 41 37 37 37
23 21 22 21 21 21 21 20 20 20 20 21 19 18 18 18 22 22 20 20 21 23 21 20 20 19 18 18 18 20 24 29 32 32 33 35 37 38 39 41 42 41 43 46 51 54 56 57 59 60 61 61 61 63 64 63 63 63 64 65 65 64 65 65 64 64 63 62 61 61 60 60 59 58 56 55 56 55 54 54 54 54 54 53 53 53 51 52 50 47 48 48 46 41 37 37 37
22 21 21 21 20 20 21 20 19 20 20 20 18 18 18 20 21 16 19 21 22 19 19 19 19 18 18 18 27 31 34 35 35 35 35 36 35 35 35 35 36 40 42 40 47 52 55 56 58 60 61 60 60 61 62 62 61 62 62 63 64 64 64 64 64 64 63 62 61 60 59 59 58 57 57 56 55 55 54 54 54 53 53 53 53 53 51 51 50 50 48 47 46 41 37 35 35
22 21 21 21 21 20 20 20 19 20 18 19 19 18 19 18 24 17 17 18 20 19 19 19 19 20 20 26 34 36 35 36 36 36 35 35 36 36 35 35 35 36 39 42 43 50 54 56 57 58 60 60 59 60 60 60 61 61 60 61 62 62 61 62 62 62 61 61 59 59 58 58 57 57 57 55 55 55 54 54 54 53 53 52 52 52 50 50 49 47 45 44 42 39 36 35 34
24 21 19 20 20 19 19 18 19 20 18 19 19 17 16 20 17 18 18 19 20 19 18 17 16 16 21 32 35 35 35 35 35 36 36 36 36 36 36 36 37 37 38 41 45 48 53 55 57 57 57 58 59 59 60 60 59 59 59 60 60 60 60 60 61 61 61 60 59 58 58 58 57 58 57 56 54 55 54 54 53 53 53 52 52 51 50 48 46 43 41 39 37 36 34 34 35
22 20 20 17 18 18 19 21 20 19 19 18 18 16 17 17 17 17 18 19 19 16 15 15 16 20 28 34 34 34 34 34 34 35 36 36 36 37 37 37 38 38 40 42 46 47 48 52 56 56 56 58 58 58 58 58 58 58 58 58 58 59 59 59 59 59 60 60 59 58 58 57 57 56 56 55 55 54 54 53 53 52 52 51 51 50 50 47 46 42 40 37 37 35 33 32 32
19 19 19 19 18 19 20 21 21 20 22 18 17 18 17 17 17 18 19 18 17 16 15 15 21 30 33 34 33 33 33 34 34 34 36 36 36 37 37 37 37 38 40 42 46 49 51 51 54 56 55 55 56 56 57 57 56 56 56 56 57 57 58 58 57 58 58 59 58 58 58 57 56 56 56 56 55 54 53 53 52 53 51 51 51 50 50 45 44 42 38 36 34 33 32 32 32
21 19 21 26 18 20 22 22 22 20 20 19 16 20 16 16 16 17 17 19 18 15 15 20 31 33 33 32 32 32 32 33 34 34 35 35 36 36 37 37 37 38 39 40 43 46 46 49 51 52 52 53 53 54 54 55 55 54 55 55 56 55 56 57 57 57 57 57 58 57 57 56 56 55 55 55 55 54 53 53 53 51 51 50 50 48 47 45 42 40 37 36 33 32 31 29 32
27 20 23 22 21 20 19 20 23 24 19 18 16 17 16 17 17 17 17 17 16 16 16 26 32 32 32 31 31 31 32 32 33 33 34 35 35 35 36 36 36 37 38 39 40 42 43 44 47 51 52 52 52 52 52 52 53 53 54 55 55 54 55 55 55 55 56 56 56 57 56 56 55 55 54 54 55 53 53 52 51 51 50 50 49 47 46 44 41 40 35 34 33 31 30 28 30
22 24 20 24 20 19 19 22 23 23 17 15 17 15 15 16 16 16 17 17 17 17 17 31 32 32 32 31 31 31 31 31 32 33 34 34 35 35 35 37 36 36 37 38 40 40 41 42 43 46 50 52 53 52 52 53 53 53 53 53 54 54 54 54 54 55 54 54 54 55 55 55 55 54 53 53 54 53 53 52 50 49 49 48 48 45 45 41 39 39 36 33 31 30 29 27 28
23 23 22 22 23 20 19 21 22 22 22 20 21 20 17 17 19 20 20 19 19 18 22 32 32 31 31 31 31 31 31 31 32 33 34 34 34 34 35 35 35 35 36 37 38 39 40 40 41 41 43 49 52 52 52 53 53 53 53 53 53 53 53 54 54 54 53 54 54 53 54 55 54 53 52 52 53 52 52 51 50 48 48 47 46 43 41 37 36 36 37 33 31 30 29 27 27
23 23 23 23 22 22 20 21 22 22 21 21 21 21 21 20 20 20 21 19 19 19 30 31 31 30 30 30 31 31 31 31 32 33 34 34 34 34 34 34 34 34 34 35 37 38 38 39 40 40 41 42 47 50 51 52 52 52 52 52 53 52 52 52 52 52 53 53 52 53 54 54 54 53 52 52 51 51 51 50 50 48 47 46 45 42 39 36 36 35 34 33 30 28 28 26 28
23 24 23 21 22 21 23 23 23 23 21 21 21 20 20 20 21 21 23 24 31 26 30 30 30 30 30 30 30 30 31 31 33 33 33 34 34 34 34 33 33 33 33 34 35 36 37 38 38 39 40 41 43 45 46 48 49 49 51 50 49 49 50 50 51 51 51 51 51 52 52 53 53 53 52 51 51 50 50 49 49 48 46 45 45 44 41 38 36 35 34 32 30 27 27 27 29
21 23 22 20 24 20 23 24 24 24 22 21 20 21 22 21 21 27 30 31 30 29 29 29 30 30 30 30 30 30 31 33 32 31 32 32 33 34 33 33 33 32 32 33 34 35 36 37 37 38 39 39 40 42 44 43 44 45 48 47 47 47 50 50 50 50 50 50 50 50 50 50 50 50 49 49 48 48 47 46 47 48 46 44 44 44 42 39 35 34 32 29 29 28 26 27 30
25 21 23 24 24 27 26 25 25 24 24 22 21 21 21 21 23 29 30 30 31 31 30 30 30 30 30 30 30 30 30 30 30 30 31 31 32 33 33 32 32 32 32 32 33 33 34 35 36 37 38 38 39 40 41 43 43 43 43 43 45 45 45 46 47 47 48 49 48 48 49 49 49 49 49 48 48 47 47 46 45 46 45 44 43 42 40 38 35 33 31 31 28 27 26 29 29
25 25 24 24 26 24 23 24 25 25 22 22 22 20 20 22 27 28 29 29 29 30 31 31 31 30 30 30 30 29 29 29 28 29 29 29 30 30 31 32 32 32 31 31 31 32 33 34 34 35 36 37 37 39 40 40 41 41 41 41 42 41 40 41 41 43 46 47 47 46 47 47 48 48 48 48 48 48 47 46 44 44 44 43 44 43 40 39 36 33 31 30 30 27 24 25 29
27 27 26 25 25 24 23 22 26 24 24 24 20 21 21 23 24 26 27 29 28 28 29 29 30 31 31 31 30 30 29 28 28 28 28 28 28 28 29 30 31 31 31 31 31 31 31 32 33 34 34 35 35 37 39 39 40 39 40 39 39 39 38 39 39 40 41 42 43 44 43 43 44 45 44 44 45 45 45 45 43 42 43 42 42 42 41 40 38 34 32 30 28 29 28 24 27
26 29 26 25 25 24 26 28 22 23 23 23 21 18 19 24 24 26 26 27 27 28 28 28 29 29 29 29 29 29 30 29 27 27 26 27 27 27 27 28 29 29 30 31 31 31 31 31 31 32 32 33 34 34 37 38 38 38 38 38 37 37 37 37 37 38 39 41 42 41 43 42 43 43 42 42 42 42 42 42 42 40 40 41 41 41 40 39 38 35 33 31 29 28 29 26 24
24 25 29 26 26 26 25 23 24 20 18 21 23 17 17 21 21 25 26 26 26 27 28 28 28 28 28 28 28 27 27 27 26 26 26 25 25 25 26 26 27 28 28 29 29 29 30 31 31 31 31 31 33 33 34 35 35 36 37 37 37 37 36 36 37 37 37 38 39 39 41 42 41 43 42 41 41 41 40 40 40 39 38 38 38 38 38 38 38 36 35 32 31 30 27 26 24
24 27 30 29 26 24 25 23 23 23 25 25 24 21 17 18 19 21 26 25 25 26 26 27 27 27 27 26 26 26 26 26 26 25 24 25 24 25 25 26 27 27 27 27 27 28 28 28 29 29 29 30 30 32 32 34 34 34 34 34 35 35 35 35 35 35 35 36 35 36 36 37 38 40 41 41 40 41 40 40 38 38 38 37 36 37 37 37 37 38 36 33 32 30 28 26 25
26 28 29 26 25 25 25 22 22 23 21 20 23 24 18 18 21 26 25 24 25 26 26 26 27 27 26 26 26 25 25 25 25 24 24 24 24 24 25 25 26 27 27 26 26 26 27 27 27 27 27 28 28 30 31 31 32 32 32 33 32 34 34 34 34 34 34 34 34 35 35 35 35 35 37 37 37 37 38 39 38 38 38 37 34 35 35 36 35 34 34 34 32 31 29 28 26
28 30 29 29 28 26 25 23 23 22 19 18 21 24 17 20 24 26 25 23 24 26 26 26 27 27 26 25 25 24 24 24 24 24 24 24 24 24 24 24 25 26 27 28 26 26 26 25 25 25 25 26 26 26 28 29 30 30 30 30 30 31 31 31 31 32 32 33 32 33 33 33 34 33 34 34 34 34 35 37 38 38 37 36 35 34 33 34 34 33 33 33 33 32 31 29 27
31 29 26 27 26 25 25 24 22 19 15 21 23 24 21 18 23 24 23 25 25 26 26 26 26 25 25 25 24 25 24 24 24 23 23 24 24 24 24 23 24 25 26 26 26 25 25 25 24 24 24 24 24 24 25 26 27 28 28 29 29 29 29 29 29 29 30 30 30 31 32 32 32 32 33 32 32 33 33 35 36 37 37 36 36 35 35 35 35 33 32 32 32 32 31 31 29
26 23 23 24 25 23 21 18 21 16 15 19 22 24 23 17 20 23 24 26 26 25 25 25 24 25 25 24 25 24 24 23 23 23 23 23 23 23 23 23 23 23 23 24 25 25 24 24 23 22 23 24 23 22 22 24 25 26 26 26 26 27 27 27 27 27 28 28 28 28 29 29 29 30 31 31 31 32 32 32 34 35 36 36 37 36 36 35 35 33 33 31 30 31 31 30 29
25 23 23 19 17 18 14 15 15 14 17 20 23 24 22 21 23 24 25 26 26 26 25 25 24 24 24 24 24 25 24 23 23 23 23 23 23 23 22 22 22 22 22 23 23 23 23 22 22 21 22 23 23 22 21 21 22 23 24 24 23 24 25 25 25 25 26 26 26 25 26 26 26 26 27 28 29 30 31 31 32 33 33 34 35 35 36 35 35 34 34 33 31 30 30 30 29
23 22 21 17 14 14 11 11 11 13 18 21 25 25 23 24 26 26 25 26 26 26 26 25 24 23 23 24 25 25 24 23 23 23 23 23 23 22 22 22 22 22 22 22 22 23 22 22 21 21 22 23 23 22 20 20 20 21 23 24 23 21 21 23 23 23 24 24 25 24 24 25 24 25 26 26 28 28 29 30 30 30 32 32 33 33 34 34 35 34 34 34 33 32 30 30 29
23 24 23 23 18 11 11 9 12 13 17 18 22 17 17 20 24 26 26 26 26 26 26 26 26 25 25 25 25 24 23 23 23 23 22 22 22 22 22 22 22 22 22 23 23 23 22 21 22 21 21 23 24 23 22 20 20 21 21 22 23 22 20 20 22 24 23 23 23 22 22 24 24 23 24 25 26 26 26 26 27 28 29 30 31 32 33 33 33 33 33 33 33 32 31 30 29
24 26 26 21 21 23 14 14 10 11 14 15 16 19 21 24 26 26 26 25 25 25 25 25 24 25 24 23 22 22 23 23 23 21 21 21 21 22 22 22 23 23 23 23 23 24 23 23 21 21 22 23 24 24 24 22 21 21 21 20 21 23 22 21 22 22 22 23 22 22 21 22 23 24 23 24 24 25 25 25 25 25 27 28 29 30 30 31 32 32 32 32 32 33 32 31 31
25 25 20 25 27 24 17 17 19 17 13 19 13 21 24 25 26 25 25 24 24 24 23 23 23 23 23 22 22 22 22 22 22 21 20 19 20 21 22 22 22 23 23 24 24 24 24 24 22 22 22 22 23 24 25 24 23 21 21 21 21 21 22 22 21 22 23 23 24 23 22 22 22 24 24 25 24 23 24 25 24 24 26 27 27 28 29 29 30 30 31 31 31 32 31 31 31
25 21 24 27 29 28 22 15 13 11 13 13 15 17 19 20 17 23 23 23 23 23 23 23 23 23 21 22 22 23 23 22 23 22 21 21 22 21 22 22 22 23 24 24 25 26 24 25 24 23 23 22 23 23 24 25 25 24 22 21 21 22 22 22 23 22 23 22 23 24 24 24 23 25 25 26 24 23 24 24 23 23 24 25 26 26 27 28 29 29 30 30 31 30 30 31 31
26 25 28 24 18 19 22 15 12 12 10 11 15 19 19 21 19 22 23 23 23 22 22 22 21 22 21 21 21 23 23 24 22 21 21 21 22 22 22 22 23 25 26 27 27 28 25 25 25 24 23 24 23 25 23 23 25 26 26 23 22 22 22 22 23 21 20 21 20 22 22 23 22 23 24 23 23 23 24 24 24 23 23 23 23 23 25 25 28 27 28 29 29 31 31 30 31
29 28 25 28 23 18 14 21 15 12 7 10 7 13 16 21 22 24 23 23 23 22 22 21 21 21 21 21 21 22 23 22 22 23 24 24 23 22 22 23 23 25 26 27 28 28 26 27 24 25 23 24 23 23 24 23 25 25 25 24 23 23 21 22 20 22 19 20 21 22 21 22 21 21 22 21 21 21 22 22 23 24 23 23 23 23 23 24 25 24 26 27 27 29 30 30 30
25 25 24 25 21 25 24 23 19 17 9 10 12 13 17 21 26 25 24 24 23 22 22 22 21 22 22 21 23 22 23 23 24 25 25 25 26 26 27 27 27 27 27 27 27 26 27 27 23 25 23 24 25 24 26 24 26 25 23 23 23 24 22 23 20 20 20 19 21 21 20 22 23 20 22 21 20 21 21 21 21 21 22 22 23 22 23 23 23 23 23 23 25 26 28 28 29
27 26 25 26 21 20 18 20 23 16 17 13 13 15 15 24 27 25 26 24 23 23 22 23 22 23 23 24 23 24 25 25 27 29 26 26 25 25 26 26 26 25 24 20 22 24 23 24 25 25 25 24 24 25 25 25 25 26 23 22 23 23 24 22 21 20 21 21 20 21 20 21 20 20 21 21 20 21 21 21 21 20 20 20 20 21 22 22 22 22 22 24 24 23 23 23 26